Date,TemperatureHighF,TemperatureAvgF,TemperatureLowF,DewpointHighF,DewpointAvgF,DewpointLowF,HumidityHigh,HumidityAvg,HumidityLow,PressureMaxIn,PressureMinIn,WindSpeedMaxMPH,WindSpeedAvgMPH,GustSpeedMaxMPH,PrecipitationSumIn
2013-7-1,70.0,65.6,64.0,68.0,64.8,62.0,100,97,91,29.88,29.80,0,0,8,0.22
2013-7-2,79.0,67.3,63.0,70.0,65.9,63.0,100,95,67,29.97,29.88,4,0,10,0.63
2013-7-3,78.0,69.2,62.0,69.0,65.9,62.0,100,90,70,30.07,29.96,2,0,7,0.62
2013-7-4,74.0,70.2,64.0,71.0,68.1,64.0,100,93,87,30.10,30.03,3,0,8,0.00
2013-7-5,81.0,70.2,64.0,72.0,67.7,64.0,100,92,71,30.10,30.02,2,0,9,0.00
2013-7-6,75.0,70.6,67.0,70.0,68.4,67.0,100,93,82,30.07,30.01,2,0,7,0.03
2013-7-7,84.0,73.1,65.0,72.0,68.4,65.0,100,86,64,30.07,30.00,1,0,8,0.01
2013-7-8,84.0,73.8,69.0,77.0,68.7,-99.9,95,88,73,30.10,30.00,1,0,7,0.00
2013-7-9,87.0,79.8,75.0,78.0,74.8,72.0,92,85,73,30.04,29.92,1,0,6,0.01
2013-7-10,81.0,75.1,67.0,77.0,68.9,-99.9,99,87,81,29.94,29.79,0,0,7,0.29
2013-7-11,77.0,71.2,64.0,72.0,64.3,60.0,98,80,61,30.00,29.89,0,0,8,0.05
2013-7-12,81.0,68.3,61.0,65.0,60.8,58.0,93,78,52,30.08,30.01,3,0,11,0.00
2013-7-13,82.0,73.3,63.0,70.0,65.3,60.0,95,77,57,30.07,30.01,6,1,14,0.02
2013-7-14,90.0,77.8,68.0,75.0,70.9,66.0,96,81,58,30.15,30.06,3,1,9,0.02
2013-7-15,88.0,77.9,72.0,76.0,73.1,71.0,99,86,64,30.24,30.15,2,0,11,0.01
2013-7-16,90.0,81.4,75.0,78.0,74.0,71.0,92,79,62,30.29,30.22,0,0,4,0.00
2013-7-17,90.0,80.9,76.0,78.0,74.3,72.0,89,81,63,30.29,30.14,0,0,2,0.00
2013-7-18,91.0,82.9,76.0,78.0,74.9,72.0,89,78,60,30.17,29.99,0,0,6,0.00
2013-7-19,87.0,80.6,74.0,78.0,74.9,73.0,98,84,68,29.99,29.85,1,0,7,0.00
2013-7-20,87.0,74.2,67.0,77.0,70.9,67.0,100,90,71,29.92,29.82,2,0,13,0.51
2013-7-21,85.0,74.3,65.0,74.0,70.0,65.0,100,87,65,29.94,29.84,0,0,5,0.21
2013-7-22,79.0,70.9,68.0,74.0,69.9,68.0,100,97,82,29.89,29.75,2,0,10,0.21
2013-7-23,84.0,75.7,70.0,78.0,73.2,69.0,100,92,79,29.82,29.72,1,0,5,0.60
2013-7-24,76.0,59.2,57.0,64.0,41.7,-99.9,97,71,59,30.01,29.83,2,0,8,0.14
2013-7-25,77.0,64.9,57.0,63.0,58.5,55.0,94,81,58,30.07,29.97,0,0,6,0.00
2013-7-26,77.0,68.1,62.0,68.0,60.3,-99.9,96,79,61,30.06,29.93,0,0,6,0.00
2013-7-27,74.0,67.9,59.0,65.0,61.1,53.0,100,80,63,29.93,29.85,1,0,7,0.21
2013-7-28,71.0,61.6,52.0,60.0,53.9,50.0,96,77,55,30.04,29.92,1,0,7,0.01
2013-7-29,77.0,65.5,59.0,65.0,58.0,55.0,91,78,58,30.14,30.04,0,0,4,0.00
2013-7-30,79.0,67.1,65.0,68.0,63.9,58.0,99,90,68,30.17,30.06,2,0,10,0.09
2013-7-31,75.0,68.1,64.0,72.0,67.2,64.0,100,97,90,30.07,29.92,1,0,7,0.01